[[{"header":{"parameterUnit":"m.s-1","parameterCategory":1,"la1":30.2991,"la2":30.254,"lo1":-89.0895,"lo2":-89.0444,"dy":0.0017,"dx":0.0017,"nx":28,"ny":28,"refTime":"2024-12-14T09:00:00:Z","depth":0,"parameterNumber":2,"parameterNumberName":"U-component_of_WINDS"},"data":[0,0,0,0,0,0,0,0,0,0,0,0,0,0,0,0,0,0,0,0,0,0,0,0,0,0,0,0,0,0,0,0,0,0,0,0,0,0,0,0,0,0,0,0,0,0,0,0,0,0,0,0,0,0,0,0,0,0,-4.6382,-4.6382,0,-4.6429,-4.6429,-4.643,-4.6374,-4.6372,-4.637,-4.6368,-4.6416,-4.6419,-4.6422,0,0,0,0,0,0,0,0,0,0,0,0,0,-4.6246,-4.6248,-4.6382,-4.6382,-4.6383,-4.6428,-4.6429,-4.643,-4.6374,-4.6372,-4.6369,-4.6367,-4.6415,-4.6419,-4.6423,0,0,0,0,0,0,0,0,0,0,0,0,0,-4.63,-4.6249,-4.6382,-4.6361,-4.6359,-4.6428,-4.6429,-4.643,-4.6375,-4.6372,-4.6369,-4.6366,-4.6414,-4.6418,-4.6423,-4.6515,0,0,-4.6438,-4.644,0,0,0,0,0,0,0,0,-4.6297,-4.6305,-4.6363,-4.6362,-4.6361,-4.6392,-4.6399,-4.6458,-4.6376,-4.6369,-4.6368,-4.6364,-4.6411,-4.6416,-4.6431,-4.6517,-4.6519,-4.6438,-4.6441,-4.6443,-4.6445,0,0,0,0,0,0,0,-4.6293,-4.6303,-4.64,-4.6364,-4.6363,-4.635,-4.6354,-4.641,-4.6407,-4.6369,-4.6365,-4.6372,-4.6409,-4.6427,-4.6432,-4.652,-4.6438,-4.6443,-4.6445,-4.6447,-4.6686,-4.6689,0,0,0,0,0,0,-4.6292,-4.63,-4.6399,-4.6402,-4.6321,-4.6355,-4.6359,-4.6385,-4.6406,-4.6406,-4.6374,-4.6369,-4.642,-4.6426,-4.6433,-4.6543,-4.6443,-4.6448,-4.6451,-4.6683,-4.6687,-4.6691,0,0,0,0,0,0,-4.6289,-4.6301,-4.6397,-4.635,-4.6361,-4.636,-4.639,-4.6388,-4.6405,-4.641,-4.6409,-4.6392,-4.6418,-4.6427,-4.6496,-4.6544,-4.645,-4.6454,-4.6679,-4.6684,-4.6689,-4.6763,0,0,0,0,0,0,-4.6285,-4.63,-4.6335,-4.6351,-4.6364,-4.6458,-4.6393,-4.6391,-4.6413,-4.6407,-4.6426,-4.6427,-4.6416,-4.6489,-4.65,-4.6549,-4.6458,-4.6674,-4.6681,-4.6687,-4.6756,-4.677,-4.6782,0,0,0,0,0,-4.6281,-4.6353,-4.6337,-4.6349,-4.6406,-4.6461,-4.6468,-4.6454,-4.6418,-4.6452,-4.6456,-4.6426,-4.6537,-4.6496,-4.6509,-4.656,-4.6671,-4.6679,-4.6687,-4.675,-4.6767,-4.6781,0,0,0,0,0,0,-4.6342,-4.6355,-4.6337,-4.6416,-4.6438,-4.6451,-4.6494,-4.6472,-4.6504,-4.6497,-4.6479,-4.6484,-4.6557,-4.6565,-4.652,-4.6651,-4.6598,-4.6609,-4.6642,-4.6658,-4.6671,-4.6667,-4.6462,0,0,0,0,0,-4.6365,-4.6408,-4.6417,-4.6486,-4.6498,-4.6495,-4.6518,-4.6506,-4.6527,-4.6536,-4.6544,-4.6566,-4.6606,-4.6633,-4.667,-4.6758,-4.6762,-4.6799,-4.6812,-4.6822,-4.6831,-4.688,-4.6897,-4.6716,-4.6716,-4.6716,0,0,-4.6412,-4.6425,-4.6453,-4.6499,-4.6514,-4.6559,-4.6503,-4.6552,-4.6586,-4.6543,-4.6609,-4.6617,-4.664,-4.6719,-4.6755,-4.6728,-4.6883,-4.6832,-4.6841,-4.6844,-4.689,-4.6907,-4.6922,-4.6721,-4.672,-4.672,0,0,-4.6522,-4.6535,-4.6595,-4.6612,-4.6637,-4.6634,-4.6649,-4.6666,-4.667,-4.6736,-4.6705,-4.6745,-4.6814,-4.6833,-4.6851,-4.6972,-4.6946,-4.6984,-4.7051,-4.7098,-4.7113,-4.7125,-4.7169,-4.7184,-4.6994,-4.6994,-4.6994,0,-4.6577,-4.6644,-4.6629,-4.6682,-4.6703,-4.6668,-4.673,-4.6747,-4.6782,-4.6798,-4.6769,-4.6856,-4.6869,-4.6953,-4.6983,-4.6999,-4.7016,-4.6981,-4.7112,-4.7124,-4.7136,-4.7177,-4.7193,-4.6998,-4.6998,-4.6997,-4.6997,0,-4.6712,-4.6759,-4.6804,-4.684,-4.6867,-4.6924,-4.6918,-4.6948,-4.6935,-4.6936,-4.7005,-4.702,-4.706,-4.708,-4.7066,-4.7162,-4.7146,-4.7115,-4.7061,-4.7158,-4.7196,-4.7212,-4.7005,-4.7003,-4.7002,-4.7001,0,0,-4.6858,-4.6887,-4.6904,-4.692,-4.6946,-4.6982,-4.7039,-4.7078,-4.7104,-4.7131,-4.7178,-4.7239,-4.7211,-4.7232,-4.7221,-4.7263,-4.7358,-4.7227,-4.7227,-4.7251,-4.7466,-4.7489,-4.7507,-4.7342,-4.7345,-4.7347,-4.7464,0,-4.6968,-4.7065,-4.7054,-4.7147,-4.7191,-4.716,-4.7209,-4.723,-4.7234,-4.7272,-4.7276,-4.732,-4.728,-4.7292,-4.7333,-4.7338,-4.7401,-4.733,-4.7386,-4.7388,-4.738,-4.7527,-4.7551,-4.766,-4.7479,-4.7481,-4.7483,0,-4.7108,-4.714,-4.7237,-4.7258,-4.7276,-4.7321,-4.7357,-4.7394,-4.7419,-4.7419,-4.7445,-4.7427,-4.7485,-4.7432,-4.7511,-4.7463,-4.7486,-4.7493,-4.7497,-4.7501,-4.7441,-4.7535,-4.7694,-4.7711,-4.7507,-4.7505,-4.7503,0,-4.7205,-4.7273,-4.734,-4.7356,-4.7382,-4.7414,-4.7426,-4.7448,-4.7473,-4.7506,-4.7523,-4.7562,-4.7583,-4.7614,-4.7608,-4.757,-4.769,-4.7636,-4.7692,-4.7692,-4.7717,-4.7716,-4.7883,-4.7734,-4.7733,-4.7733,-4.7733,0,-4.7328,-4.7389,-4.7385,-4.7426,-4.7494,-4.7483,-4.755,-4.7559,-4.7579,-4.7622,-4.7598,-4.7639,-4.7629,-4.7671,-4.7667,-4.7734,-4.7744,-4.7746,-4.7744,-4.7747,-4.7747,-4.7761,-4.7753,-4.7737,-4.7736,-4.7736,-4.7735,0,-4.7447,-4.7447,-4.7518,-4.7538,-4.7545,-4.7594,-4.7611,-4.7651,-4.7653,-4.7708,-4.7721,-4.7725,-4.7773,-4.7771,-4.7824,-4.7822,-4.7905,-4.7894,-4.7896,-4.7894,-4.795,-4.7945,-4.8131,-4.8155,-4.7991,-4.7993,-4.7994,0,-4.7525,-4.7572,-4.7597,-4.7624,-4.7639,-4.7683,-4.771,-4.7701,-4.773,-4.7763,-4.7799,-4.7845,-4.7881,-4.7959,-4.7967,-4.8009,-4.7999,-4.8061,-4.8004,-4.8007,-4.8,-4.7997,-4.8002,-4.8072,-4.8074,-4.8075,-4.8076,0,-4.7664,-4.7662,-4.7701,-4.7741,-4.7773,-4.7804,-4.7832,-4.7856,-4.7851,-4.7885,-4.7933,-4.7961,-4.8017,-4.8063,-4.8104,-4.8117,-4.8097,-4.8095,-4.811,-4.8113,-4.8113,-4.8114,-4.7926,-4.809,-4.8088,-4.8087,-4.8087,-4.8086,-4.7765,-4.7805,-4.783,-4.7874,-4.7895,-4.7923,-4.7961,-4.797,-4.801,-4.8055,-4.8048,-4.8103,-4.8129,-4.8182,-4.8199,-4.8243,-4.822,-4.8242,-4.8248,-4.8253,-4.8259,-4.8107,-4.825,-4.825,-4.8249,-4.8249,-4.8249,0,-4.7902,-4.7917,-4.7958,-4.7999,-4.8035,-4.8014,-4.8045,-4.8076,-4.8125,-4.8151,-4.8187,-4.8244,-4.829,-4.8303,-4.8347,-4.8379,-4.8371,-4.8391,-4.8388,-4.8392,-4.8277,-4.8259,-4.8397,-4.8397,-4.8397,-4.8397,-4.8397,-4.8397,-4.7977,-4.8045,-4.8047,-4.8125,-4.8139,-4.8193,-4.8213,-4.8239,-4.826,-4.8325,-4.8362,-4.8371,-4.8392,-4.8438,-4.8479,-4.8482,-4.8499,-4.8523,-4.8522,-4.8414,-4.8399,-4.8385,-4.8369,-4.8527,-4.8527,-4.8634,-4.8635,-4.8635]},{"header":{"parameterUnit":"m.s-1","parameterCategory":1,"la1":30.2991,"la2":30.254,"lo1":-89.0895,"lo2":-89.0444,"dy":0.0017,"dx":0.0017,"nx":28,"ny":28,"refTime":"2024-12-14T09:00:00:Z","depth":0,"parameterNumber":3,"parameterNumberName":"V-component_of_WINDS"},"data":[0,0,0,0,0,0,0,0,0,0,0,0,0,0,0,0,0,0,0,0,0,0,0,0,0,0,0,0,0,0,0,0,0,0,0,0,0,0,0,0,0,0,0,0,0,0,0,0,0,0,0,0,0,0,0,0,0,0,0.4198,0.4198,0,0.4217,0.4217,0.4217,0.4238,0.4238,0.4239,0.4239,0.4256,0.4257,0.4257,0,0,0,0,0,0,0,0,0,0,0,0,0,0.4182,0.4183,0.4198,0.4198,0.4199,0.4216,0.4217,0.4217,0.4238,0.4238,0.4239,0.4239,0.4256,0.4257,0.4257,0,0,0,0,0,0,0,0,0,0,0,0,0,0.4194,0.4183,0.4198,0.4211,0.4213,0.4216,0.4217,0.4217,0.4238,0.4238,0.4239,0.4239,0.4256,0.4257,0.4257,0.4249,0,0,0.4258,0.4258,0,0,0,0,0,0,0,0,0.4193,0.4194,0.4209,0.421,0.4212,0.4225,0.4218,0.4228,0.4238,0.4228,0.4239,0.4239,0.4246,0.4247,0.4249,0.425,0.425,0.4258,0.4258,0.4258,0.4258,0,0,0,0,0,0,0,0.4192,0.4194,0.4205,0.4209,0.4211,0.4217,0.4219,0.422,0.4234,0.4229,0.4231,0.4233,0.4246,0.4249,0.425,0.4251,0.4258,0.4258,0.4258,0.4258,0.4248,0.4248,0,0,0,0,0,0,0.419,0.4193,0.4205,0.4206,0.4204,0.4216,0.4219,0.4221,0.4234,0.4237,0.4232,0.4233,0.4248,0.4249,0.425,0.4244,0.4258,0.4258,0.4258,0.4249,0.4248,0.4248,0,0,0,0,0,0,0.4189,0.419,0.4204,0.42,0.4202,0.4216,0.4218,0.4221,0.4223,0.4236,0.4239,0.4232,0.4249,0.425,0.425,0.4244,0.4258,0.4258,0.4249,0.4248,0.4248,0.4229,0,0,0,0,0,0,0.4189,0.419,0.4187,0.42,0.4202,0.4203,0.4218,0.4221,0.4224,0.4226,0.4237,0.4239,0.4249,0.4249,0.425,0.4245,0.4259,0.425,0.4249,0.4248,0.423,0.4228,0.4226,0,0,0,0,0,0.4188,0.418,0.4187,0.4188,0.4198,0.4202,0.4204,0.4216,0.4223,0.422,0.4229,0.4239,0.4245,0.4249,0.425,0.4245,0.425,0.4249,0.4248,0.4231,0.4228,0.4226,0,0,0,0,0,0,0.4165,0.4182,0.4189,0.4185,0.4192,0.4206,0.4203,0.4212,0.4217,0.4218,0.4233,0.4235,0.4234,0.4239,0.4243,0.4239,0.4249,0.4248,0.4236,0.4233,0.4231,0.423,0.4259,0,0,0,0,0,0.416,0.4162,0.4176,0.4171,0.4174,0.4188,0.419,0.4199,0.4207,0.421,0.4218,0.4226,0.423,0.4232,0.4236,0.4231,0.4235,0.4228,0.4226,0.4224,0.4224,0.4224,0.4222,0.4245,0.4245,0.4245,0,0,0.4148,0.4158,0.4158,0.4167,0.4173,0.4176,0.419,0.4191,0.4193,0.421,0.4211,0.4217,0.4226,0.4225,0.4224,0.4229,0.4218,0.4223,0.4222,0.4222,0.4223,0.422,0.4218,0.4244,0.4244,0.4244,0,0,0.4129,0.4136,0.4133,0.414,0.4151,0.416,0.416,0.4172,0.4178,0.4179,0.4192,0.4195,0.42,0.4207,0.4211,0.4197,0.4207,0.4198,0.4187,0.4187,0.4185,0.4183,0.418,0.4178,0.4197,0.4197,0.4197,0,0.4113,0.4117,0.4131,0.4132,0.4136,0.4153,0.4151,0.4157,0.4168,0.417,0.4176,0.4186,0.4192,0.4193,0.419,0.4193,0.4193,0.4197,0.4184,0.4183,0.4181,0.4178,0.4176,0.4196,0.4196,0.4196,0.4196,0,0.4098,0.4101,0.4098,0.4109,0.4113,0.4113,0.4127,0.413,0.4139,0.4148,0.415,0.4159,0.4167,0.4168,0.4176,0.417,0.4173,0.4181,0.4191,0.4178,0.4175,0.4174,0.4195,0.4195,0.4195,0.4196,0,0,0.4064,0.4085,0.4083,0.409,0.4103,0.4106,0.4107,0.4115,0.4117,0.4125,0.4127,0.4133,0.4141,0.4146,0.4155,0.4155,0.4145,0.4163,0.4164,0.416,0.4142,0.4136,0.4134,0.4152,0.4152,0.4151,0.4141,0,0.4048,0.4051,0.4064,0.4064,0.4067,0.4084,0.4085,0.4094,0.4103,0.4108,0.4118,0.4122,0.4132,0.4135,0.4136,0.4146,0.4142,0.4147,0.4154,0.4154,0.4152,0.4133,0.4126,0.4116,0.414,0.414,0.414,0,0.4029,0.4037,0.4037,0.4053,0.4054,0.4055,0.4065,0.4069,0.408,0.4087,0.4093,0.4104,0.4107,0.4117,0.4122,0.4125,0.4129,0.4135,0.4135,0.4136,0.4146,0.4134,0.4113,0.4112,0.4138,0.4138,0.4138,0,0.4005,0.4016,0.4018,0.4023,0.404,0.4041,0.4049,0.406,0.4065,0.4073,0.4077,0.4085,0.409,0.4096,0.411,0.4115,0.4114,0.4124,0.412,0.412,0.4119,0.4119,0.4099,0.4121,0.4121,0.4121,0.4121,0,0.3986,0.3986,0.4008,0.4009,0.401,0.4026,0.4026,0.4035,0.4046,0.405,0.4064,0.4068,0.4085,0.4091,0.4101,0.4105,0.4106,0.4112,0.4115,0.4112,0.4111,0.4114,0.4116,0.412,0.412,0.4121,0.4121,0,0.396,0.3974,0.3978,0.3996,0.4,0.4,0.4015,0.4017,0.4028,0.4033,0.4035,0.4052,0.4059,0.4074,0.4085,0.4092,0.4094,0.4098,0.409,0.4092,0.4088,0.4088,0.407,0.4069,0.409,0.409,0.409,0,0.3947,0.3948,0.3966,0.397,0.3977,0.3983,0.3988,0.4005,0.401,0.4024,0.4025,0.4034,0.4042,0.4053,0.4067,0.4076,0.4081,0.4074,0.4082,0.4079,0.4082,0.4082,0.4083,0.4072,0.4072,0.4072,0.4071,0,0.3923,0.3931,0.3938,0.3949,0.3955,0.3964,0.3974,0.3976,0.3995,0.4,0.4008,0.4015,0.4027,0.4037,0.4048,0.4056,0.4067,0.4069,0.4069,0.4065,0.4061,0.4064,0.4086,0.4069,0.4069,0.4069,0.407,0.407,0.3904,0.3906,0.392,0.3928,0.3937,0.3947,0.395,0.3962,0.397,0.3982,0.3991,0.3999,0.4012,0.4029,0.4037,0.4044,0.4049,0.4048,0.4048,0.4048,0.4047,0.4059,0.4046,0.4046,0.4046,0.4046,0.4046,0,0.3882,0.3892,0.39,0.3913,0.392,0.3931,0.3943,0.3948,0.3955,0.3967,0.3975,0.3986,0.3995,0.401,0.4021,0.4024,0.4029,0.4026,0.4026,0.4028,0.4041,0.4041,0.4021,0.4021,0.4021,0.4021,0.4021,0.4021,0.3871,0.3876,0.3886,0.3895,0.3906,0.3914,0.392,0.3929,0.3939,0.395,0.3959,0.3969,0.3982,0.3994,0.4004,0.4008,0.4012,0.4007,0.4013,0.4025,0.4027,0.4029,0.4029,0.4008,0.4008,0.4,0.4,0.3999]}]]